Location: Pian di Sc�
(43.6333°N, 11.5500°E)
Time: 10:07:00
(UTC+00:00)

Cosmos 1461 - Pass Details

Date: 07 August 2020
Orbit: 501 x 665 km, 65.0° (Epoch: 18 September)

Event Time Altitude Azimuth Distance (km) Brightness Sun altitude
Exits shadow 01:47:10 51° 167° (SSE) 748 3.2 -21.2°
Maximum altitude 01:47:57 62° 120° (ESE) 676 3.2 -21.1°
Drops below altitude 10° 01:52:23 10° 40° (NE) 1,993 6.9 -20.6°
Sets 01:54:45 0° 37° (NE) 2,929 8.1 -20.3°
